Location: Newark
(33.6439°N, 114.9881°W)
Time: 15:18:56
(UTC+00:00)

Tiros 1 despin weight - Visible Passes

Search period start: 17 July 2019 00:00
Search period end: 27 July 2019 00:00
Orbit: 594 x 642 km, 48.2° (Epoch: 16 July)

Date Brightness Start Highest point End Pass type
(mag) Time Alt. Az. Time Alt. Az. Time Alt. Az.
17 Jul ? 04:40:42 10° WNW 04:44:28 26° SW 04:45:39 23° SSW visible
18 Jul ? 03:15:13 10° NW 03:19:47 87° SW 03:24:16 10° SE visible
18 Jul ? 04:59:12 10° WSW 05:00:45 12° SW 05:01:39 11° SW visible
19 Jul ? 03:32:02 10° WNW 03:36:18 41° SW 03:40:30 10° SSE visible
20 Jul ? 03:49:29 10° W 03:52:41 19° SW 03:55:50 10° S visible
